Regional Weather Roundup
Issued by NWS

Home | Current Version | Previous Version | Text Only | Print | Product List | Glossary Off
Versions: 1 2 3 4 5 6 7 8 9 10 11 12 13 14 15 16 17 18 19 20 21 22 23 24 25 26 27 28 29 30 31 32 33 34 35 36 37 38 39 40 41 42 43 44 45 46 47 48 49 50

000
ASUS43 KOAX 181010
RWRNE

WEATHER ROUNDUP FOR NEBRASKA
NATIONAL WEATHER SERVICE OMAHA NE
500 AM CDT SAT APR 18 2015

NOTES: SATELLITE DATA IS BEING USED TO AUGMENT CLOUD COVER ABOVE
       12000 FEET.
       "FAIR" INDICATES FEW OR NO CLOUDS BELOW 12,000 FEET WITH NO
       SIGNIFICANT WEATHER AND/OR OBSTRUCTIONS TO VISIBILITY.

  * THESE STATIONS DO NOT REPORT WEATHER SUCH AS RAIN...SNOW OR FOG.

NEZ001>004-019>022-054>056-181100-
NEBRASKA PANHANDLE

CITY           SKY/WX    TMP DP  RH WIND       PRES   REMARKS
SCOTTSBLUFF    LGT RAIN  42  42 100 W7        29.97F
ALLIANCE       CLOUDY    45  44  97 CALM      29.95F
CHADRON        LGT RAIN  47  46  97 N9        29.98F FOG
KIMBALL        CLOUDY    39  38  97 N13       29.91F WCI  32
SIDNEY         CLOUDY    41  39  93 N12       29.94F
$$

NEZ057>060-069>072-079>082-181100-
SOUTHWEST NEBRASKA

CITY           SKY/WX    TMP DP  RH WIND       PRES   REMARKS
NORTH PLATTE   LGT RAIN  50  47  89 NW10      29.91F
IMPERIAL       CLOUDY    47  45  93 CALM      29.92F
LEXINGTON      LGT RAIN  55  53  95 NW14      29.91F
MCCOOK         MOCLDY    49  46  90 N9        29.90F
OGALLALA       CLOUDY    48  47  96 N14       29.92F
$$

NEZ005>010-023>029-035>040-094-181100-
NORTH CENTRAL NEBRASKA

CITY           SKY/WX    TMP DP  RH WIND       PRES   REMARKS
VALENTINE      RAIN      50  47  89 NE13      29.96F FOG
AINSWORTH      CLOUDY    52  50  94 NE10      29.95F
BROKEN BOW     HVY RAIN  53  52  96 CALM      29.95R FOG
O`NEILL        CLOUDY    55  49  80 NE9       29.95F
THEDFORD       HVY RAIN  48  47  97 NW7       29.97F
$$

NEZ041-046>049-061>064-073>077-083>087-181100-
SOUTH CENTRAL NEBRASKA

CITY           SKY/WX    TMP DP  RH WIND       PRES   REMARKS
GRAND ISLAND   LGT RAIN  57  54  89 SE12      29.90F FOG
AURORA         CLOUDY    58  56  94 SE8       29.90F
HASTINGS       CLOUDY    57  55  93 SE8       29.90F
HEBRON         CLOUDY    58  55  89 CALM      29.91S
HOLDREGE       RAIN      54  52  93 N7        29.89F
KEARNEY *      CLOUDY    55  54  94 W8        29.93S
YORK           CLOUDY    57  55  94 E8        29.91F
$$

NEZ011>018-030>034-042>045-181100-
NORTHEAST NEBRASKA

CITY           SKY/WX    TMP DP  RH WIND       PRES   REMARKS
ALBION         CLOUDY    58  51  78 E8        29.92F
BLAIR          CLOUDY    60  52  75 NE8       29.94F
COLUMBUS *     CLOUDY    57  48  72 E8        29.94F
FREMONT        CLOUDY    61  55  79 NE5       29.93F
TEKAMAH        CLOUDY    59  51  75 N7        29.94F
WAYNE          CLOUDY    58  50  75 E13       29.97F
$$

NEZ050>053-065>068-078-088>093-181100-
SOUTHEAST NEBRASKA

CITY           SKY/WX    TMP DP  RH WIND       PRES   REMARKS
LINCOLN        CLOUDY    61  55  81 SE7       29.92F
OMAHA EPPLEY   CLOUDY    62  54  74 NE5       29.93F
BEATRICE       CLOUDY    59  55  88 E6        29.91F
FALLS CITY     CLOUDY    59  55  87 CALM      29.92F
NEBRASKA CITY  CLOUDY    60  53  76 CALM      29.94F
PLATTSMOUTH    CLOUDY    61  53  75 SE5       29.94F
$$

NEZ044-045-051>053-067-181100-
OMAHA AREA

CITY           SKY/WX    TMP DP  RH WIND       PRES   REMARKS
OMAHA EPPLEY   CLOUDY    62  54  74 NE5       29.93F
BLAIR          CLOUDY    60  52  75 NE8       29.94F
FREMONT        CLOUDY    61  55  79 NE5       29.93F
MILLARD        CLOUDY    61  56  85 CALM      29.93F
OFFUTT AFB     CLOUDY    59  56  91 E2        29.93F
PLATTSMOUTH    CLOUDY    61  53  75 SE5       29.94F
WAHOO          FAIR      58  54  86 NE5       29.92F
$$



USA.gov is the U.S. government's official web portal to all federal, state and local government web resources and services.